Regional Weather Roundup
Issued by NWS Cleveland, OH

Home | Current Version | Previous Version | Text Only | Print | Product List | Glossary Off
Versions: 1 2 3 4 5 6 7 8 9 10 11 12 13 14 15 16 17 18 19 20 21 22 23 24 25 26 27 28 29 30 31 32 33 34 35 36 37 38 39 40 41 42 43 44 45 46 47 48 49 50

000
ASUS41 KCLE 280802
RWRCLE
OHIO REGIONAL WEATHER ROUNDUP
NATIONAL WEATHER SERVICE CLEVELAND, OH
400 AM EDT WED SEP 28 2016

NOTE: "FAIR" INDICATES FEW OR NO CLOUDS BELOW 12,000 FEET WITH NO
SIGNIFICANT WEATHER AND/OR OBSTRUCTIONS TO VISIBILITY.

OHZ001>008-015>018-024>027-034-035-043-044-280900-
   NORTHWEST OHIO

CITY           SKY/WX    TMP DP  RH WIND       PRES   REMARKS
DEFIANCE       CLOUDY    52  45  77 CALM      29.80F
FINDLAY        CLOUDY    56  48  74 S7        29.81F
TOLEDO EXPRESS PTCLDY    49  48  97 CALM      29.81S
TOLEDO EXEC    MOCLDY    51  46  83 CALM      29.83S
LIMA           PTCLDY    55  50  83 S8        29.81F
$$

OHZ009>014-019>023-028>033-038-089-280900-
   NORTHEAST OHIO

CITY           SKY/WX    TMP DP  RH WIND       PRES   REMARKS
CLE-HOPKINS    PTCLDY    58  44  60 S12       29.87S
CLE-LAKEFRONT  PTCLDY    60  44  55 SE13      29.84S
CUY CO. ARPT   NOT AVBL
LORAIN-ELYRIA  MOCLDY    52  44  74 S7        29.85S
ASHTABULA      CLEAR     53  44  71 S8        29.89S
AKRON-CANTON   PTCLDY    54  41  61 S6        29.89R
WOOSTER        PTCLDY    53  42  66 S5        29.88S
MANSFIELD      PTCLDY    56  45  66 S8        29.86S
YOUNGSTOWN     PTCLDY    54  41  61 SE8       29.90S
$$

OHZ042-051>053-060>062-070>072-077>081-280900-
  SOUTHWEST OHIO

CITY           SKY/WX    TMP DP  RH WIND       PRES   REMARKS
CINC-COVINGTON MOCLDY    57  48  72 S9        29.85F
CINC-LUNKEN    PTCLDY    52  51  97 CALM      29.86F
HAMILTON       CLOUDY    54  50  86 CALM      29.85F
DAYTON         MOCLDY    59  47  64 S10       29.83F
WRIGHT-PAT AFB PTCLDY    56  48  76 S5        29.83F
DAYTON GENERAL PTCLDY    57  47  69 S9        29.83F
WILMINGTON     PTCLDY    55  46  71 S7        29.86F
$$

OHZ036-037-039>041-045>050-054>059-063>069-073>076-082>088-280900-
  CENTRAL AND SOUTHEAST OHIO

CITY           SKY/WX    TMP DP  RH WIND       PRES   REMARKS
COLUMBUS       PTCLDY    55  46  71 SE3       29.86F
OSU AIRPORT    PTCLDY    56  46  69 S5        29.85F
BOLTON FIELD   CLEAR     51  46  83 S5        29.86F
RICKENBACK AFB CLEAR     55  44  68 S8        29.86S
NEWARK         CLEAR     47  45  93 CALM      29.88S
MARION         PTCLDY    54  46  74 S8        29.85F
LANCASTER      CLEAR     52  45  77 SE5       29.88F
ZANESVILLE     PTCLDY    50  44  80 SE3       29.90
NEW PHILLY     PTCLDY    49  45  86 SE3       29.91S
$$




USA.gov is the U.S. government's official web portal to all federal, state and local government web resources and services.